Amarillo, TX

4:52 PM CDT on March 24, 2017 (GMT -0500)
Amarillo International

Weather History for KAMA - February, 2013

Change the Weather History Date:

Tuesday, February 26, 2013

  Actual Average Record
Temperature  
Mean Temperature 28 °F 43 °F  
Max Temperature 38 °F 57 °F 80 °F (1981)
Min Temperature 17 °F 29 °F 5 °F (1934)
Degree Days  
Heating Degree Days 37 22  
Month to date heating degree days 642 648  
Since 1 July heating degree days 2808 3233  
Cooling Degree Days 0 0  
Month to date cooling degree days 0 0  
Year to date cooling degree days 0 0  
Moisture  
Dew Point 21 °F    
Average Humidity 73    
Maximum Humidity 92    
Minimum Humidity 54    
Precipitation  
Precipitation 0.00 in 0.02 in 0.97 in (1895)
Month to date precipitation 2.53 0.52  
Year to date precipitation 3.29 1.24  
Snow  
Snow 0.00 in 0.10 in 3.50 in (1984)
Month to date snowfall 25.6 2.8  
Since 1 July snowfall 29.6 13.9  
Snow Depth 17.00 in    
Sea Level Pressure  
Sea Level Pressure 29.89 in    
Wind  
Wind Speed 9 mph (NW)    
Max Wind Speed 20 mph    
Max Gust Speed 30 mph    
Visibility 10 miles    
Events      
T = Trace of Precipitation, MM = Missing Value Source: NWS Daily Summary

Daily Weather History Graph

Daily Weather History Graph

Search for Another Location

Airport or City:

Trip Planner

Search our weather history database for the weather conditions in past years. The results will help you decide how hot, cold, wet, or windy it might be!

Date:

Astronomy

Feb. 26, 2013 Rise Set
Actual Time 7:19 AM CST 6:39 PM CST
Civil Twilight 6:54 AM CST 7:05 PM CST
Nautical Twilight 6:24 AM CST 7:34 PM CST
Astronomical Twilight 5:55 AM CST 8:04 PM CST
Moon 7:53 PM CST (2/26) 7:27 AM CST (2/26)
Length of Visible Light 12h 11m
Length of Day
11h 20m
Full, 99% of the Moon is Illuminated
Feb 26
Full
Mar 4
Last Quarter
Mar 11
New
Mar 19
First Quarter
Mar 27
Full

Hourly Weather History & Observations

Time (CST) Temp. Windchill Dew Point Humidity Pressure Visibility Wind Dir Wind Speed Gust Speed Precip Events Conditions
12:53 AM 26.1 °F 13.6 °F 19.9 °F 78% 29.93 in 10.0 mi NW 16.1 mph - N/A   Clear
1:53 AM 24.1 °F 13.1 °F 19.0 °F 81% 29.92 in 10.0 mi NW 11.5 mph - N/A   Clear
2:53 AM 23.0 °F 11.7 °F 18.0 °F 81% 29.91 in 10.0 mi NW 11.5 mph - N/A   Clear
3:53 AM 21.9 °F 11.7 °F 18.0 °F 85% 29.88 in 10.0 mi NNW 9.2 mph - N/A   Clear
4:53 AM 19.9 °F 11.1 °F 16.0 °F 85% 29.88 in 10.0 mi NNW 6.9 mph - N/A   Clear
5:53 AM 19.0 °F 7.5 °F 15.1 °F 85% 29.89 in 10.0 mi WNW 10.4 mph - N/A   Clear
6:53 AM 17.1 °F 5.8 °F 14.0 °F 88% 29.92 in 10.0 mi WNW 9.2 mph - N/A   Clear
7:53 AM 18.0 °F 6.9 °F 15.1 °F 88% 29.92 in 10.0 mi West 9.2 mph - N/A   Clear
8:53 AM 24.1 °F 16.0 °F 18.0 °F 77% 29.91 in 10.0 mi West 6.9 mph - N/A   Clear
9:53 AM 30.0 °F - 21.0 °F 69% 29.90 in 10.0 mi Calm Calm - N/A   Clear
10:53 AM 32.0 °F 28.7 °F 21.9 °F 66% 29.89 in 10.0 mi North 3.5 mph - N/A   Clear
11:53 AM 30.9 °F - 21.9 °F 69% 29.89 in 10.0 mi Calm Calm - N/A   Clear
12:53 PM 33.1 °F 28.7 °F 25.0 °F 72% 29.86 in 10.0 mi South 4.6 mph - N/A   Clear
1:53 PM 34.0 °F 28.8 °F 25.0 °F 70% 29.84 in 10.0 mi SSE 5.8 mph - N/A   Clear
2:53 PM 35.1 °F 27.9 °F 25.0 °F 67% 29.81 in 10.0 mi SE 9.2 mph - N/A   Clear
3:53 PM 37.0 °F 29.3 °F 24.1 °F 59% 29.81 in 10.0 mi South 11.5 mph - N/A   Clear
4:53 PM 37.9 °F 30.0 °F 23.0 °F 55% 29.81 in 10.0 mi SSE 12.7 mph - N/A   Clear
5:53 PM 37.0 °F - 26.1 °F 65% 29.77 in 10.0 mi North - - N/A   Clear
6:53 PM 34.0 °F 26.0 °F 25.0 °F 70% 29.84 in 10.0 mi East 10.4 mph - N/A   Clear
7:53 PM 32.0 °F 19.8 °F 24.1 °F 73% 29.90 in 10.0 mi NNE 20.7 mph - N/A   Mostly Cloudy
8:53 PM 30.9 °F 22.2 °F 24.1 °F 76% 29.93 in 10.0 mi NNE 10.4 mph - N/A   Overcast
9:53 PM 30.9 °F 27.5 °F 24.1 °F 76% 29.94 in 10.0 mi NNE 3.5 mph - N/A   Mostly Cloudy
10:53 PM 28.9 °F 19.8 °F 24.1 °F 82% 29.98 in 10.0 mi NW 10.4 mph - N/A   Clear
11:53 PM 28.9 °F 20.4 °F 21.9 °F 75% 30.00 in 10.0 mi NW 9.2 mph - N/A   Partly Cloudy